Main page
METAR-TAF:

METAR-TAF

Airports :

Goeree Le, Netherlands

Oil platform

latitude: 51-55-33N, longitude: 3-40-12E, elevation: 19 m

Current weather observation

The report was made 32 minutes ago, at 22:25 UTC
Wind 21 kt from the West/Southwest
Temperature 10°C
Humidity 82%
Pressure 1014 hPa
Visibility 10 km or more

METAR: EHSC 262225Z AUTO 24021KT 9999 ///////// 10/07 Q1014 W09/H15

Time: 00:57 (22:57 UTC)


TAF: missing

Weather observations and forecasts of more than 4000 airports (METAR and TAF reports).

The available stations are represented by yellow and red dots on the map.

Hover mouse over dot to see the name of the station.

Then click to see weather observations and forecasts.

To change the map : click on the green buttons with a black cross to zoom in, on the green button with a dash to zoom out, or on the green arrows for adjacent maps.


METAR-TAF: